When you browse on this site, cookies collect data to enhance your experience and personalize the content and advertising you see.
Visit our Privacy Policy to learn more. By continuing to use the site, you agree to this use of cookies and data.
  • In Romania
  • List of Countries
  • For 7 days
  • Water Temperature
  • Weather Map
  • Weather Widgets
  • user-avatar
    Login

    Hourly Weather Saint-Etienne-du-Rouvray

    Today, 19 September, Thursday

    Time Temperature Precipitation Wind Pressure Humidity
    00:00 +10°C° 0 mm 4 mps 769 mmHg 77%
    01:00 +10°C° 0 mm 4 mps 769 mmHg 79%
    02:00 +8°C° 0 mm 4 mps 768 mmHg 80%
    03:00 +9°C° 0 mm 3 mps 768 mmHg 82%
    04:00 +9°C° 0 mm 3 mps 768 mmHg 85%
    05:00 +9°C° 0 mm 3 mps 769 mmHg 87%
    06:00 +9°C° 0 mm 3 mps 769 mmHg 89%
    07:00 +11°C° 0 mm 4 mps 769 mmHg 78%
    08:00 +13°C° 0 mm 5 mps 769 mmHg 67%
    09:00 +15°C° 0 mm 6 mps 769 mmHg 56%
    10:00 +16°C° 0 mm 6 mps 769 mmHg 52%
    11:00 +19°C° 0 mm 6 mps 769 mmHg 49%
    12:00 +20°C° 0 mm 6 mps 769 mmHg 46%
    13:00 +20°C° 0 mm 6 mps 769 mmHg 45%
    14:00 +20°C° 0 mm 6 mps 768 mmHg 44%
    15:00 +20°C° 0 mm 6 mps 768 mmHg 43%
    16:00 +19°C° 0 mm 5 mps 768 mmHg 48%
    17:00 +16°C° 0 mm 5 mps 768 mmHg 52%
    18:00 +15°C° 0 mm 4 mps 768 mmHg 57%
    19:00 +14°C° 0 mm 4 mps 768 mmHg 59%
    20:00 +13°C° 0 mm 4 mps 768 mmHg 60%
    21:00 +12°C° 0 mm 4 mps 768 mmHg 62%
    22:00 +12°C° 0 mm 4 mps 768 mmHg 63%
    23:00 +11°C° 0 mm 4 mps 768 mmHg 64%

    Tomorrow, 20 September, Friday

    Time Temperature Precipitation Wind Pressure Humidity
    00:00 +10°C° 0 mm 4 mps 768 mmHg 64%
    01:00 +10°C° 0 mm 4 mps 767 mmHg 66%
    02:00 +8°C° 0 mm 4 mps 767 mmHg 67%
    03:00 +8°C° 0 mm 4 mps 767 mmHg 68%
    04:00 +7°C° 0 mm 4 mps 766 mmHg 68%
    05:00 +7°C° 0 mm 4 mps 766 mmHg 68%
    06:00 +7°C° 0 mm 4 mps 766 mmHg 68%
    07:00 +9°C° 0 mm 5 mps 765 mmHg 59%
    08:00 +13°C° 0 mm 6 mps 765 mmHg 50%
    09:00 +15°C° 0 mm 7 mps 765 mmHg 42%
    10:00 +17°C° 0 mm 7 mps 765 mmHg 38%
    11:00 +20°C° 0 mm 7 mps 764 mmHg 34%
    12:00 +21°C° 0 mm 7 mps 763 mmHg 31%
    13:00 +22°C° 0 mm 7 mps 763 mmHg 30%
    14:00 +22°C° 0 mm 7 mps 762 mmHg 29%
    15:00 +23°C° 0 mm 7 mps 761 mmHg 29%
    16:00 +21°C° 0 mm 6 mps 761 mmHg 33%
    17:00 +19°C° 0 mm 5 mps 761 mmHg 37%
    18:00 +18°C° 0 mm 4 mps 760 mmHg 40%
    19:00 +16°C° 0 mm 5 mps 760 mmHg 42%
    20:00 +15°C° 0 mm 5 mps 760 mmHg 43%
    21:00 +14°C° 0 mm 5 mps 760 mmHg 44%
    22:00 +14°C° 0 mm 5 mps 759 mmHg 48%
    23:00 +13°C° 0 mm 5 mps 759 mmHg 51%

    Day after tomorrow, 21 September, Saturday

    Time Temperature Precipitation Wind Pressure Humidity
    00:00 +12°C° 0 mm 5 mps 758 mmHg 55%
    01:00 +12°C° 0 mm 4 mps 758 mmHg 57%
    02:00 +11°C° 0 mm 4 mps 758 mmHg 60%
    03:00 +11°C° 0 mm 4 mps 758 mmHg 63%
    04:00 +11°C° 0 mm 4 mps 757 mmHg 65%
    05:00 +11°C° 0 mm 4 mps 757 mmHg 67%
    06:00 +11°C° 0 mm 4 mps 756 mmHg 70%
    07:00 +13°C° 0 mm 4 mps 756 mmHg 67%
    08:00 +17°C° 0 mm 4 mps 756 mmHg 63%
    09:00 +20°C° 0 mm 4 mps 756 mmHg 60%
    10:00 +22°C° 0 mm 5 mps 756 mmHg 57%
    11:00 +25°C° 0 mm 5 mps 755 mmHg 53%
    12:00 +28°C° 0 mm 5 mps 755 mmHg 49%
    13:00 +28°C° 0 mm 5 mps 754 mmHg 48%
    14:00 +28°C° 0 mm 5 mps 754 mmHg 46%
    15:00 +29°C° 0 mm 5 mps 753 mmHg 45%
    16:00 +27°C° 0 mm 4 mps 753 mmHg 50%
    17:00 +25°C° 0 mm 4 mps 752 mmHg 54%
    18:00 +24°C° 0 mm 3 mps 752 mmHg 59%
    19:00 +22°C° 0 mm 3 mps 752 mmHg 59%
    20:00 +22°C° 0 mm 3 mps 752 mmHg 60%
    21:00 +21°C° 0 mm 3 mps 752 mmHg 61%
    22:00 +20°C° 0.1 mm 3 mps 752 mmHg 67%
    23:00 +19°C° 0.1 mm 3 mps 752 mmHg 74%

    22 September, Sunday

    Time Temperature Precipitation Wind Pressure Humidity
    00:00 +18°C° 0.1 mm 3 mps 751 mmHg 80%
    01:00 +18°C° 0.1 mm 3 mps 751 mmHg 83%
    02:00 +18°C° 0.1 mm 4 mps 751 mmHg 86%
    03:00 +18°C° 0.1 mm 4 mps 751 mmHg 88%
    04:00 +18°C° 0.1 mm 4 mps 751 mmHg 89%
    05:00 +18°C° 0.1 mm 4 mps 751 mmHg 89%
    06:00 +17°C° 0.1 mm 4 mps 750 mmHg 89%
    07:00 +17°C° 0.7 mm 5 mps 751 mmHg 90%
    08:00 +17°C° 0.7 mm 5 mps 751 mmHg 91%
    09:00 +17°C° 0.7 mm 5 mps 752 mmHg 91%
    10:00 +19°C° 0.2 mm 5 mps 752 mmHg 82%
    11:00 +20°C° 0.2 mm 5 mps 752 mmHg 73%
    12:00 +21°C° 0.2 mm 5 mps 752 mmHg 64%
    13:00 +21°C° 0 mm 5 mps 752 mmHg 61%
    14:00 +21°C° 0 mm 5 mps 752 mmHg 58%
    15:00 +22°C° 0 mm 6 mps 752 mmHg 55%
    16:00 +20°C° 0.1 mm 5 mps 752 mmHg 59%
    17:00 +19°C° 0.1 mm 4 mps 753 mmHg 64%
    18:00 +18°C° 0.1 mm 3 mps 753 mmHg 68%
    19:00 +17°C° 0.1 mm 4 mps 753 mmHg 74%
    20:00 +15°C° 0.1 mm 4 mps 754 mmHg 80%
    21:00 +14°C° 0.1 mm 4 mps 755 mmHg 86%
    22:00 +14°C° 0 mm 4 mps 755 mmHg 88%
    23:00 +13°C° 0 mm 4 mps 755 mmHg 90%

    23 September, Monday

    Time Temperature Precipitation Wind Pressure Humidity
    00:00 +12°C° 0 mm 4 mps 756 mmHg 92%
    01:00 +12°C° 0 mm 4 mps 756 mmHg 92%
    02:00 +11°C° 0 mm 4 mps 756 mmHg 93%
    03:00 +11°C° 0 mm 4 mps 756 mmHg 93%
    04:00 +11°C° 0 mm 4 mps 757 mmHg 93%
    05:00 +10°C° 0 mm 3 mps 757 mmHg 94%
    06:00 +10°C° 0 mm 3 mps 757 mmHg 94%
    07:00 +12°C° 0 mm 4 mps 757 mmHg 86%
    08:00 +14°C° 0 mm 5 mps 757 mmHg 78%
    09:00 +17°C° 0 mm 5 mps 758 mmHg 70%
    10:00 +19°C° 0.1 mm 5 mps 757 mmHg 64%
    11:00 +20°C° 0.1 mm 5 mps 757 mmHg 57%
    12:00 +21°C° 0.1 mm 6 mps 757 mmHg 51%
    13:00 +21°C° 0 mm 6 mps 757 mmHg 51%
    14:00 +21°C° 0 mm 6 mps 757 mmHg 52%
    15:00 +21°C° 0 mm 6 mps 756 mmHg 52%
    16:00 +19°C° 0.6 mm 5 mps 756 mmHg 65%
    17:00 +16°C° 0.6 mm 5 mps 756 mmHg 78%
    18:00 +15°C° 0.6 mm 4 mps 756 mmHg 90%
    19:00 +15°C° 0.5 mm 5 mps 756 mmHg 90%
    20:00 +15°C° 0.5 mm 5 mps 757 mmHg 91%
    21:00 +15°C° 0.5 mm 5 mps 757 mmHg 91%
    22:00 +16°C° 0.1 mm 5 mps 757 mmHg 91%
    23:00 +16°C° 0.1 mm 5 mps 756 mmHg 92%

    24 September, Tuesday

    Time Temperature Precipitation Wind Pressure Humidity
    00:00 +16°C° 0.1 mm 5 mps 756 mmHg 92%
    01:00 +17°C° 0 mm 4 mps 756 mmHg 93%
    02:00 +17°C° 0 mm 4 mps 756 mmHg 94%
    03:00 +17°C° 0 mm 4 mps 756 mmHg 95%
    04:00 +17°C° 0 mm 4 mps 756 mmHg 95%
    05:00 +18°C° 0 mm 4 mps 756 mmHg 94%
    06:00 +18°C° 0 mm 4 mps 756 mmHg 94%
    07:00 +17°C° 0.6 mm 5 mps 755 mmHg 93%
    08:00 +17°C° 0.6 mm 5 mps 755 mmHg 93%
    09:00 +17°C° 0.6 mm 6 mps 755 mmHg 92%
    10:00 +18°C° 0.4 mm 7 mps 755 mmHg 90%
    11:00 +18°C° 0.4 mm 7 mps 754 mmHg 88%
    12:00 +18°C° 0.4 mm 8 mps 754 mmHg 86%
    13:00 +18°C° 0.2 mm 8 mps 754 mmHg 86%
    14:00 +18°C° 0.2 mm 7 mps 753 mmHg 86%
    15:00 +18°C° 0.2 mm 7 mps 753 mmHg 86%
    16:00 +19°C° 0.4 mm 6 mps 753 mmHg 88%
    17:00 +19°C° 0.4 mm 5 mps 753 mmHg 89%
    18:00 +18°C° 0.4 mm 4 mps 752 mmHg 90%
    19:00 +17°C° 0.3 mm 5 mps 753 mmHg 91%
    20:00 +17°C° 0.3 mm 5 mps 753 mmHg 91%
    21:00 +16°C° 0.3 mm 5 mps 753 mmHg 92%
    22:00 +16°C° 0 mm 5 mps 752 mmHg 92%
    23:00 +15°C° 0 mm 5 mps 752 mmHg 93%
    Show more